date,City,No. Stations,Air Quality,Index Value,Prominent Pollutant
2022-02-05,Jhansi,1.0,Moderate,153,PM2.5
2022-02-06,Jhansi,1.0,Moderate,109,PM10
2022-02-07,Jhansi,1.0,Moderate,114,PM10
2022-02-08,Jhansi,1.0,Moderate,151,PM10
2022-02-09,Jhansi,1.0,Moderate,167,PM10
2022-02-10,Jhansi,1.0,Moderate,164,PM2.5
2022-02-11,Jhansi,1.0,Moderate,134,PM10
2022-02-12,Jhansi,1.0,Moderate,141,PM10
2022-02-13,Jhansi,1.0,Moderate,140,PM10
2022-02-14,Jhansi,1.0,Moderate,153,PM10
2022-02-15,Jhansi,1.0,Moderate,167,PM10
2022-02-16,Jhansi,1.0,Moderate,165,PM2.5
2022-02-17,Jhansi,1.0,Moderate,152,PM10
2022-02-18,Jhansi,1.0,Moderate,132,PM10
2022-02-19,Jhansi,1.0,Moderate,138,PM10
2022-02-20,Jhansi,1.0,Moderate,110,PM10
2022-02-21,Jhansi,1.0,Moderate,106,PM10
2022-02-22,Jhansi,1.0,Moderate,122,PM10
2022-02-23,Jhansi,1.0,Moderate,124,PM10
2022-02-24,Jhansi,1.0,Moderate,151,PM10
2022-02-25,Jhansi,1.0,Moderate,186,PM10
2022-02-26,Jhansi,1.0,Moderate,185,PM10
2022-02-27,Jhansi,1.0,Moderate,125,PM10
2022-02-28,Jhansi,1.0,Satisfactory,95,PM10
2022-03-01,Jhansi,1.0,Satisfactory,94,PM10
2022-03-02,Jhansi,1.0,Moderate,155,PM10
2022-03-03,Jhansi,1.0,Moderate,144,PM10
2022-03-04,Jhansi,1.0,Moderate,139,PM10
2022-03-05,Jhansi,1.0,Moderate,101,PM10
2022-03-08,Jhansi,1.0,Moderate,120,PM10
2022-03-09,Jhansi,1.0,Moderate,187,PM10
2022-03-10,Jhansi,1.0,Moderate,111,PM10
2022-03-11,Jhansi,1.0,Moderate,113,PM10
2022-03-13,Jhansi,1.0,Moderate,124,PM10
2022-03-15,Jhansi,1.0,Moderate,174,PM10
2022-03-16,Jhansi,1.0,Moderate,174,PM10
2022-03-17,Jhansi,1.0,Moderate,170,PM10
2022-03-18,Jhansi,1.0,Moderate,197,PM2.5
2022-03-19,Jhansi,1.0,Moderate,188,PM2.5
2022-03-20,Jhansi,1.0,Moderate,142,PM10
2022-03-21,Jhansi,1.0,Moderate,142,PM10
2022-03-22,Jhansi,1.0,Moderate,153,PM10
2022-03-23,Jhansi,1.0,Moderate,164,PM10
2022-03-24,Jhansi,1.0,Moderate,188,PM10
2022-03-25,Jhansi,1.0,Moderate,159,PM10
2022-03-26,Jhansi,1.0,Moderate,174,PM10
2022-03-27,Jhansi,1.0,Moderate,164,PM10
2022-03-28,Jhansi,1.0,Moderate,172,PM10
2022-03-29,Jhansi,1.0,Satisfactory,86,PM2.5
2022-03-30,Jhansi,1.0,Moderate,150,PM10
2022-03-31,Jhansi,1.0,Moderate,167,PM10
2022-04-01,Jhansi,1.0,Moderate,178,PM10
2022-04-02,Jhansi,1.0,Moderate,178,PM10
2022-04-03,Jhansi,1.0,Moderate,159,PM10
2022-04-04,Jhansi,1.0,Moderate,156,PM10
2022-04-05,Jhansi,1.0,Satisfactory,83,PM2.5
2022-04-06,Jhansi,1.0,Moderate,182,PM10
2022-04-07,Jhansi,1.0,Moderate,164,PM10
2022-04-08,Jhansi,1.0,Moderate,160,PM10
2022-04-11,Jhansi,1.0,Moderate,139,PM10
2022-04-12,Jhansi,1.0,Moderate,145,PM10
2022-04-14,Jhansi,1.0,Moderate,184,PM10
2022-04-15,Jhansi,1.0,Poor,218,PM10
2022-04-18,Jhansi,1.0,Moderate,178,PM10
2022-04-19,Jhansi,1.0,Poor,203,PM10
2022-04-22,Jhansi,1.0,Poor,215,PM10
2022-04-23,Jhansi,1.0,Poor,214,PM10
2022-04-24,Jhansi,1.0,Moderate,152,PM10
2022-04-25,Jhansi,1.0,Moderate,196,PM10
2022-04-26,Jhansi,1.0,Moderate,182,PM10
2022-04-27,Jhansi,1.0,Poor,203,PM10
2022-04-28,Jhansi,1.0,Moderate,195,PM10
2022-04-29,Jhansi,1.0,Moderate,171,PM10
2022-04-30,Jhansi,1.0,Moderate,117,PM10
2022-05-01,Jhansi,1.0,Moderate,167,PM10
2022-05-02,Jhansi,1.0,Moderate,185,PM10
2022-05-05,Jhansi,1.0,Moderate,174,PM10
2022-05-06,Jhansi,1.0,Moderate,165,PM10
2022-05-07,Jhansi,1.0,Moderate,173,PM10
2022-05-08,Jhansi,1.0,Moderate,182,PM10
2022-05-09,Jhansi,1.0,Moderate,159,PM10
2022-05-10,Jhansi,1.0,Moderate,142,PM10
2022-05-11,Jhansi,1.0,Moderate,154,PM10
2022-05-12,Jhansi,1.0,Moderate,162,PM10
2022-05-13,Jhansi,1.0,Moderate,165,PM10
2022-05-14,Jhansi,1.0,Moderate,152,PM10
2022-05-15,Jhansi,1.0,Moderate,147,PM10
2022-05-16,Jhansi,1.0,Moderate,142,PM10
2022-05-17,Jhansi,1.0,Moderate,162,PM10
2022-05-18,Jhansi,1.0,Moderate,189,PM10
2022-05-19,Jhansi,1.0,Moderate,185,PM10
2022-05-20,Jhansi,1.0,Moderate,193,PM10
2022-05-21,Jhansi,1.0,Poor,232,PM10
2022-05-22,Jhansi,1.0,Poor,241,PM10
2022-05-25,Jhansi,1.0,Moderate,125,PM10
2022-05-26,Jhansi,1.0,Moderate,143,PM10
2022-05-29,Jhansi,1.0,Moderate,157,PM10
2022-06-03,Jhansi,1.0,Moderate,167,PM10
2022-06-04,Jhansi,1.0,Moderate,179,PM10
2022-06-05,Jhansi,1.0,Moderate,135,PM10
2022-06-06,Jhansi,1.0,Good,38,PM2.5
2022-06-07,Jhansi,1.0,Moderate,167,PM10
2022-06-08,Jhansi,1.0,Moderate,167,PM10
2022-06-09,Jhansi,1.0,Moderate,146,PM10
2022-06-10,Jhansi,1.0,Moderate,163,PM10
2022-06-11,Jhansi,1.0,Moderate,140,PM10
2022-06-14,Jhansi,1.0,Satisfactory,88,PM10
2022-06-15,Jhansi,1.0,Satisfactory,82,PM10
2022-06-16,Jhansi,1.0,Satisfactory,62,PM10
2022-06-17,Jhansi,1.0,Good,50,PM10
2022-06-21,Jhansi,1.0,Good,47,PM10
2022-06-25,Jhansi,1.0,Moderate,159,PM10
2022-06-29,Jhansi,1.0,Satisfactory,56,PM10
2022-06-30,Jhansi,1.0,Good,48,PM10
2022-07-01,Jhansi,1.0,Good,35,PM10
2022-07-02,Jhansi,1.0,Good,29,PM10
2022-07-03,Jhansi,1.0,Good,42,PM10
2022-07-04,Jhansi,1.0,Good,29,PM10
2022-07-09,Jhansi,1.0,Good,48,PM10
2022-07-12,Jhansi,1.0,Satisfactory,64,PM10
2022-07-13,Jhansi,1.0,Good,34,PM10
2022-07-14,Jhansi,1.0,Satisfactory,64,PM10
2022-07-15,Jhansi,1.0,Satisfactory,64,PM10
2022-07-16,Jhansi,1.0,Good,34,PM10
2022-07-17,Jhansi,1.0,Good,32,PM10
2022-07-18,Jhansi,1.0,Good,46,PM10
2022-07-19,Jhansi,1.0,Satisfactory,89,PM10
2022-07-20,Jhansi,1.0,Satisfactory,52,PM10
2022-07-21,Jhansi,1.0,Good,21,CO
2022-07-22,Jhansi,1.0,Good,24,PM10
2022-07-23,Jhansi,1.0,Good,30,CO
2022-07-24,Jhansi,1.0,Good,37,PM10
2022-07-25,Jhansi,1.0,Good,24,PM10
2022-07-26,Jhansi,1.0,Good,23,CO
2022-07-30,Jhansi,1.0,Satisfactory,62,CO
2022-08-01,Jhansi,1.0,Satisfactory,83,PM10
2022-08-02,Jhansi,1.0,Good,44,PM2.5
2022-08-03,Jhansi,1.0,Good,33,PM10
2022-08-04,Jhansi,1.0,Satisfactory,53,PM10
2022-08-07,Jhansi,1.0,Satisfactory,73,PM10
2022-08-08,Jhansi,1.0,Good,33,PM10
2022-08-09,Jhansi,1.0,Good,36,PM10
2022-08-10,Jhansi,1.0,Good,37,PM10
2022-08-11,Jhansi,1.0,Good,37,PM10
2022-08-12,Jhansi,1.0,Good,27,PM10
2022-08-13,Jhansi,1.0,Good,30,PM10
2022-08-14,Jhansi,1.0,Good,27,PM10
2022-08-17,Jhansi,1.0,Good,21,PM10
2022-08-18,Jhansi,1.0,Good,46,PM10
2022-08-19,Jhansi,1.0,Satisfactory,68,PM10
2022-08-20,Jhansi,1.0,Good,31,PM10
2022-08-21,Jhansi,1.0,Good,27,PM2.5
2022-08-25,Jhansi,1.0,Satisfactory,64,PM10
2022-08-26,Jhansi,1.0,Good,48,PM10
2022-08-27,Jhansi,1.0,Satisfactory,62,PM10
2022-08-29,Jhansi,1.0,Satisfactory,57,PM10
2022-08-31,Jhansi,1.0,Satisfactory,84,PM10
2022-09-01,Jhansi,1.0,Satisfactory,86,PM10
2022-09-02,Jhansi,1.0,Good,35,CO
2022-09-05,Jhansi,1.0,Satisfactory,51,PM10
2022-09-06,Jhansi,1.0,Good,45,PM10
2022-09-07,Jhansi,1.0,Satisfactory,78,PM10
2022-09-08,Jhansi,1.0,Moderate,114,PM10
2022-09-10,Jhansi,1.0,Satisfactory,74,PM10
2022-09-11,Jhansi,1.0,Satisfactory,63,PM10
2022-09-14,Jhansi,1.0,Good,25,CO
2022-09-15,Jhansi,1.0,Good,28,CO
2022-09-18,Jhansi,1.0,Satisfactory,64,PM10
2022-09-19,Jhansi,1.0,Satisfactory,78,PM10
2022-09-20,Jhansi,1.0,Satisfactory,79,PM10
2022-09-22,Jhansi,1.0,Good,27,PM10
2022-09-23,Jhansi,1.0,Good,47,CO
2022-09-24,Jhansi,1.0,Good,45,PM10
2022-09-25,Jhansi,1.0,Satisfactory,76,PM10
2022-09-26,Jhansi,1.0,Satisfactory,92,PM10
2022-09-27,Jhansi,1.0,Satisfactory,74,PM10
2022-09-28,Jhansi,1.0,Moderate,105,PM10
2022-09-29,Jhansi,1.0,Satisfactory,100,PM10
2022-09-30,Jhansi,1.0,Moderate,109,PM10
2022-10-01,Jhansi,1.0,Moderate,127,PM10
2022-10-02,Jhansi,1.0,Moderate,120,PM10
2022-10-03,Jhansi,1.0,Satisfactory,99,PM10
2022-10-04,Jhansi,1.0,Moderate,132,PM10
2022-10-05,Jhansi,1.0,Satisfactory,60,PM10
2022-10-06,Jhansi,1.0,Good,28,SO2
2022-10-07,Jhansi,1.0,Good,31,CO
2022-10-08,Jhansi,1.0,Good,38,PM10
2022-10-09,Jhansi,1.0,Good,50,PM10
2022-10-10,Jhansi,1.0,Good,36,PM10
2022-10-11,Jhansi,1.0,Good,29,SO2
2022-10-12,Jhansi,1.0,Good,35,PM10
2022-10-13,Jhansi,1.0,Satisfactory,69,PM10
2022-10-14,Jhansi,1.0,Satisfactory,96,PM10
2022-10-15,Jhansi,1.0,Moderate,123,PM10
2022-10-16,Jhansi,1.0,Moderate,147,PM2.5
2022-10-17,Jhansi,1.0,Moderate,134,PM10
2022-10-18,Jhansi,1.0,Moderate,148,PM10
2022-10-19,Jhansi,1.0,Moderate,144,PM10
2022-10-20,Jhansi,1.0,Moderate,149,PM10
2022-10-21,Jhansi,1.0,Moderate,114,PM10
2022-10-22,Jhansi,1.0,Moderate,138,PM10
2022-10-23,Jhansi,1.0,Moderate,177,PM2.5
2022-10-24,Jhansi,1.0,Poor,214,PM2.5
2022-10-25,Jhansi,1.0,Poor,211,PM2.5
2022-10-26,Jhansi,1.0,Moderate,129,PM10
2022-10-27,Jhansi,1.0,Moderate,165,PM2.5
2022-10-28,Jhansi,1.0,Moderate,157,PM10
2022-10-29,Jhansi,1.0,Moderate,158,PM10
2022-10-30,Jhansi,1.0,Poor,256,PM2.5
2022-10-31,Jhansi,1.0,Poor,259,PM2.5
2022-11-01,Jhansi,1.0,Poor,248,PM2.5
2022-11-02,Jhansi,1.0,Moderate,159,PM2.5
2022-11-03,Jhansi,1.0,Moderate,163,PM2.5
2022-11-04,Jhansi,1.0,Poor,262,PM2.5
2022-11-05,Jhansi,1.0,Poor,277,PM2.5
2022-11-06,Jhansi,1.0,Poor,258,PM10
2022-11-07,Jhansi,1.0,Moderate,112,PM10
2022-11-08,Jhansi,1.0,Satisfactory,93,PM10
2022-11-09,Jhansi,1.0,Moderate,106,PM10
2022-11-10,Jhansi,1.0,Poor,239,PM2.5
2022-11-11,Jhansi,1.0,Moderate,170,PM2.5
2022-11-12,Jhansi,1.0,Moderate,152,PM2.5
2022-11-13,Jhansi,1.0,Moderate,155,PM2.5
2022-11-14,Jhansi,1.0,Moderate,131,PM10
2022-11-15,Jhansi,1.0,Moderate,130,PM10
2022-11-16,Jhansi,1.0,Moderate,137,PM10
2022-11-17,Jhansi,1.0,Moderate,119,PM10
2022-11-18,Jhansi,1.0,Moderate,125,PM10
2022-11-19,Jhansi,1.0,Moderate,149,PM10
2022-11-20,Jhansi,1.0,Moderate,181,PM2.5
2022-11-21,Jhansi,1.0,Poor,206,PM2.5
2022-11-22,Jhansi,1.0,Moderate,174,PM2.5
2022-11-23,Jhansi,1.0,Moderate,154,PM10
2022-11-24,Jhansi,1.0,Moderate,131,PM10
2022-11-25,Jhansi,1.0,Moderate,176,CO
2022-11-26,Jhansi,1.0,Moderate,149,PM10
2022-11-27,Jhansi,1.0,Moderate,148,PM10
2022-11-28,Jhansi,1.0,Moderate,182,PM2.5
2022-11-29,Jhansi,1.0,Poor,231,PM2.5
2022-11-30,Jhansi,1.0,Poor,209,PM2.5
2022-12-01,Jhansi,1.0,Poor,217,PM2.5
2022-12-02,Jhansi,1.0,Poor,237,PM2.5
2022-12-03,Jhansi,1.0,Poor,239,PM2.5
2022-12-04,Jhansi,1.0,Poor,231,PM2.5
2022-12-05,Jhansi,1.0,Poor,235,PM2.5
2022-12-06,Jhansi,1.0,Moderate,160,PM2.5
2022-12-07,Jhansi,1.0,Moderate,128,PM10
2022-12-08,Jhansi,1.0,Moderate,126,PM10
2022-12-09,Jhansi,1.0,Moderate,122,PM10
2022-12-10,Jhansi,1.0,Poor,230,PM2.5
2022-12-11,Jhansi,1.0,Poor,217,PM2.5
2022-12-12,Jhansi,1.0,Moderate,162,PM10
2022-12-13,Jhansi,1.0,Satisfactory,94,PM10
2022-12-14,Jhansi,1.0,Satisfactory,77,PM10
2022-12-15,Jhansi,1.0,Moderate,111,PM10
2022-12-16,Jhansi,1.0,Moderate,106,PM10
2022-12-17,Jhansi,1.0,Moderate,115,PM10
2022-12-18,Jhansi,1.0,Moderate,114,PM10
2022-12-19,Jhansi,1.0,Moderate,163,PM2.5
2022-12-20,Jhansi,1.0,Poor,220,PM2.5
2022-12-21,Jhansi,1.0,Moderate,150,PM2.5
2022-12-22,Jhansi,1.0,Moderate,158,PM10
2022-12-23,Jhansi,1.0,Moderate,136,PM10
2022-12-24,Jhansi,1.0,Moderate,144,PM10
2022-12-25,Jhansi,1.0,Moderate,126,PM10
2022-12-26,Jhansi,1.0,Moderate,120,PM10
2022-12-27,Jhansi,1.0,Moderate,170,PM2.5
2022-12-28,Jhansi,1.0,Moderate,138,PM2.5
2022-12-29,Jhansi,1.0,Moderate,105,PM10
2022-12-30,Jhansi,1.0,Moderate,122,PM10
2022-12-31,Jhansi,1.0,Moderate,161,PM10
2023-01-01,Jhansi,1.0,Poor,223,PM10
2023-01-02,Jhansi,1.0,Moderate,155,PM10
2023-01-03,Jhansi,1.0,Moderate,127,PM10
2023-01-04,Jhansi,1.0,Moderate,137,PM10
2023-01-05,Jhansi,1.0,Moderate,144,PM10
2023-01-06,Jhansi,1.0,Moderate,141,PM10
2023-01-07,Jhansi,1.0,Moderate,132,PM10
2023-01-08,Jhansi,1.0,Moderate,114,PM10
2023-01-09,Jhansi,1.0,Moderate,147,PM10
2023-01-10,Jhansi,1.0,Moderate,116,PM10
2023-01-11,Jhansi,1.0,Moderate,133,PM10
2023-01-12,Jhansi,1.0,Moderate,109,PM10
2023-01-13,Jhansi,1.0,Moderate,102,PM10
2023-01-14,Jhansi,1.0,Moderate,116,PM10
2023-01-15,Jhansi,1.0,Moderate,108,PM10
2023-01-17,Jhansi,1.0,Moderate,106,PM10
2023-01-18,Jhansi,1.0,Moderate,121,PM10
2023-01-19,Jhansi,1.0,Moderate,154,PM10
2023-01-20,Jhansi,1.0,Moderate,139,PM10
2023-01-21,Jhansi,1.0,Moderate,134,PM10
2023-01-22,Jhansi,1.0,Moderate,165,PM10
2023-01-23,Jhansi,1.0,Satisfactory,88,PM10
2023-01-24,Jhansi,1.0,Moderate,101,PM10
2023-01-25,Jhansi,1.0,Moderate,103,PM10
2023-01-26,Jhansi,1.0,Satisfactory,95,PM10
2023-01-27,Jhansi,1.0,Moderate,103,PM10
2023-01-28,Jhansi,1.0,Moderate,112,PM10
2023-01-29,Jhansi,1.0,Satisfactory,100,PM10
2023-01-30,Jhansi,1.0,Satisfactory,84,PM10
2023-01-31,Jhansi,1.0,Satisfactory,52,PM10
2023-02-01,Jhansi,1.0,Satisfactory,57,PM10
2023-02-02,Jhansi,1.0,Satisfactory,78,PM10
2023-02-03,Jhansi,1.0,Satisfactory,85,PM10
2023-02-04,Jhansi,1.0,Satisfactory,98,PM10
2023-02-05,Jhansi,1.0,Satisfactory,81,PM10
2023-02-06,Jhansi,1.0,Satisfactory,100,PM10
2023-02-07,Jhansi,1.0,Satisfactory,90,PM10
2023-02-08,Jhansi,1.0,Satisfactory,71,PM10
2023-02-09,Jhansi,1.0,Satisfactory,95,PM10
2023-02-10,Jhansi,1.0,Satisfactory,66,PM10
2023-02-11,Jhansi,1.0,Satisfactory,74,PM10
2023-02-12,Jhansi,1.0,Moderate,106,PM10
2023-02-13,Jhansi,1.0,Satisfactory,64,PM10
2023-02-14,Jhansi,1.0,Satisfactory,72,PM10
2023-02-15,Jhansi,1.0,Satisfactory,93,PM10
2023-02-16,Jhansi,1.0,Moderate,103,PM10
2023-02-17,Jhansi,1.0,Moderate,107,PM10
2023-02-18,Jhansi,1.0,Moderate,126,PM10
2023-02-19,Jhansi,1.0,Moderate,113,PM10
2023-02-20,Jhansi,1.0,Satisfactory,93,PM10
2023-02-21,Jhansi,1.0,Satisfactory,83,PM10
2023-02-22,Jhansi,1.0,Satisfactory,77,PM10
2023-02-23,Jhansi,1.0,Moderate,102,PM10
2023-02-24,Jhansi,1.0,Moderate,101,PM10
2023-02-25,Jhansi,1.0,Satisfactory,93,PM10
2023-02-26,Jhansi,1.0,Satisfactory,98,PM10
2023-02-27,Jhansi,1.0,Moderate,107,PM10
2023-02-28,Jhansi,1.0,Moderate,120,PM10
2023-03-01,Jhansi,1.0,Satisfactory,95,PM10
2023-03-02,Jhansi,1.0,Satisfactory,92,PM10
2023-03-03,Jhansi,1.0,Moderate,120,PM10
2023-03-04,Jhansi,1.0,Moderate,114,PM10
2023-03-05,Jhansi,1.0,Satisfactory,60,PM10
2023-03-06,Jhansi,1.0,Satisfactory,81,PM10
2023-03-07,Jhansi,1.0,Satisfactory,58,SO2
2023-03-08,Jhansi,1.0,Satisfactory,59,SO2
2023-03-09,Jhansi,1.0,Satisfactory,54,SO2
2023-03-10,Jhansi,1.0,Satisfactory,56,SO2
2023-03-11,Jhansi,1.0,Satisfactory,73,PM10
2023-03-12,Jhansi,1.0,Satisfactory,89,PM10
2023-03-13,Jhansi,1.0,Satisfactory,93,PM10
2023-03-14,Jhansi,1.0,Satisfactory,91,PM10
2023-03-15,Jhansi,1.0,Satisfactory,64,PM10
2023-03-16,Jhansi,1.0,Satisfactory,82,PM10
2023-03-17,Jhansi,1.0,Satisfactory,68,PM10
2023-03-18,Jhansi,1.0,Satisfactory,58,SO2
2023-03-19,Jhansi,1.0,Satisfactory,69,PM10
2023-03-20,Jhansi,1.0,Satisfactory,59,SO2
2023-03-21,Jhansi,1.0,Satisfactory,55,SO2
2023-03-22,Jhansi,1.0,Satisfactory,56,SO2
2023-03-23,Jhansi,1.0,Satisfactory,57,SO2
2023-03-24,Jhansi,1.0,Satisfactory,72,PM10
2023-03-25,Jhansi,1.0,Satisfactory,79,PM10
2023-03-26,Jhansi,1.0,Satisfactory,60,SO2
2023-03-27,Jhansi,1.0,Satisfactory,79,PM10
2023-03-28,Jhansi,1.0,Satisfactory,83,PM10
2023-03-29,Jhansi,1.0,Satisfactory,82,PM10
2023-03-30,Jhansi,1.0,Satisfactory,90,PM10
2023-03-31,Jhansi,1.0,Satisfactory,67,PM10
2023-04-01,Jhansi,1.0,Satisfactory,59,SO2
2023-04-02,Jhansi,1.0,Satisfactory,60,SO2
2023-04-03,Jhansi,1.0,Satisfactory,62,SO2
2023-04-04,Jhansi,1.0,Moderate,102,PM10
2023-04-05,Jhansi,1.0,Satisfactory,68,SO2
2023-04-06,Jhansi,1.0,Satisfactory,76,PM10
2023-04-07,Jhansi,1.0,Satisfactory,72,PM10
2023-04-08,Jhansi,1.0,Satisfactory,95,PM10
2023-04-09,Jhansi,1.0,Satisfactory,78,PM10
2023-04-10,Jhansi,1.0,Satisfactory,82,PM10
2023-04-11,Jhansi,1.0,Satisfactory,80,PM10
2023-04-12,Jhansi,1.0,Satisfactory,79,PM10
2023-04-13,Jhansi,1.0,Satisfactory,94,PM10
2023-04-14,Jhansi,1.0,Satisfactory,88,PM10
2023-04-15,Jhansi,1.0,Satisfactory,99,PM10
2023-04-16,Jhansi,1.0,Satisfactory,68,SO2
2023-04-17,Jhansi,1.0,Satisfactory,79,PM10
2023-04-18,Jhansi,1.0,Satisfactory,71,PM10
2023-04-19,Jhansi,1.0,Satisfactory,71,PM10
2023-04-20,Jhansi,1.0,Satisfactory,97,PM10
2023-04-21,Jhansi,1.0,Satisfactory,100,PM10
2023-04-22,Jhansi,1.0,Satisfactory,81,PM10
2023-04-23,Jhansi,1.0,Moderate,105,PM10
2023-04-24,Jhansi,1.0,Satisfactory,83,PM10
2023-04-25,Jhansi,1.0,Moderate,104,PM10
2023-04-26,Jhansi,1.0,Moderate,195,O3
2023-04-27,Jhansi,1.0,Moderate,129,PM10
2023-04-28,Jhansi,1.0,Moderate,154,PM10
2023-04-29,Jhansi,1.0,Satisfactory,76,PM10
2023-04-30,Jhansi,1.0,Moderate,113,PM10
2023-05-01,Jhansi,1.0,Satisfactory,53,SO2
2023-05-02,Jhansi,1.0,Satisfactory,72,PM10
2023-05-03,Jhansi,1.0,Satisfactory,69,PM10
2023-05-04,Jhansi,1.0,Satisfactory,68,PM10
2023-05-05,Jhansi,1.0,Satisfactory,97,PM10
2023-05-06,Jhansi,1.0,Moderate,142,PM10
2023-05-07,Jhansi,1.0,Moderate,134,PM10
2023-05-08,Jhansi,1.0,Moderate,157,PM10
2023-05-09,Jhansi,1.0,Moderate,140,PM10
2023-05-10,Jhansi,1.0,Moderate,145,PM10
2023-05-11,Jhansi,1.0,Moderate,153,PM10
2023-05-12,Jhansi,1.0,Moderate,132,PM10
2023-05-13,Jhansi,1.0,Moderate,148,PM10
2023-05-14,Jhansi,1.0,Moderate,192,PM10
2023-05-15,Jhansi,1.0,Satisfactory,57,PM2.5
2023-05-16,Jhansi,1.0,Moderate,143,PM10
2023-05-17,Jhansi,1.0,Moderate,126,PM10
2023-05-18,Jhansi,1.0,Moderate,119,PM10
2023-05-19,Jhansi,1.0,Moderate,158,PM10
2023-05-20,Jhansi,1.0,Moderate,108,PM2.5
2023-05-22,Jhansi,1.0,Satisfactory,71,PM2.5
2023-05-23,Jhansi,1.0,Satisfactory,58,PM2.5
2023-05-24,Jhansi,1.0,Satisfactory,67,PM2.5
2023-05-25,Jhansi,1.0,Good,50,SO2
2023-05-26,Jhansi,1.0,Satisfactory,74,O3
2023-05-27,Jhansi,1.0,Satisfactory,64,O3
2023-05-28,Jhansi,1.0,Satisfactory,60,PM2.5
2023-05-29,Jhansi,1.0,Satisfactory,66,PM2.5
2023-05-30,Jhansi,1.0,Satisfactory,74,PM2.5
2023-05-31,Jhansi,1.0,Satisfactory,57,O3
2023-06-01,Jhansi,1.0,Satisfactory,71,O3
2023-06-02,Jhansi,1.0,Satisfactory,77,O3
2023-06-03,Jhansi,1.0,Satisfactory,82,PM2.5
2023-06-04,Jhansi,1.0,Satisfactory,73,O3
2023-06-05,Jhansi,1.0,Satisfactory,69,O3
2023-06-06,Jhansi,1.0,Satisfactory,81,PM2.5
2023-06-07,Jhansi,1.0,Satisfactory,99,PM2.5
2023-06-08,Jhansi,1.0,Satisfactory,89,PM10
2023-06-09,Jhansi,1.0,Satisfactory,64,PM2.5
2023-06-10,Jhansi,1.0,Satisfactory,61,PM10
2023-06-11,Jhansi,1.0,Satisfactory,55,SO2
2023-06-12,Jhansi,1.0,Satisfactory,55,SO2
2023-06-13,Jhansi,1.0,Satisfactory,55,SO2
2023-06-14,Jhansi,1.0,Satisfactory,57,SO2
2023-06-15,Jhansi,1.0,Moderate,119,PM10
2023-06-16,Jhansi,1.0,Moderate,117,PM10
2023-06-17,Jhansi,1.0,Moderate,130,PM10
2023-06-18,Jhansi,1.0,Moderate,133,PM10
2023-06-19,Jhansi,1.0,Moderate,112,PM10
2023-06-20,Jhansi,1.0,Moderate,105,PM10
2023-06-21,Jhansi,1.0,Satisfactory,87,PM10
2023-06-22,Jhansi,1.0,Satisfactory,90,PM10
2023-06-27,Jhansi,1.0,Moderate,102,PM10
2023-06-28,Jhansi,1.0,Satisfactory,95,PM10
2023-06-29,Jhansi,1.0,Satisfactory,87,PM10
2023-06-30,Jhansi,1.0,Satisfactory,70,PM10
2023-07-01,Jhansi,1.0,Satisfactory,74,PM10
2023-07-02,Jhansi,1.0,Satisfactory,100,PM10
2023-07-03,Jhansi,1.0,Moderate,121,PM10
2023-07-04,Jhansi,1.0,Moderate,131,PM10
2023-07-05,Jhansi,1.0,Satisfactory,82,PM10
2023-07-06,Jhansi,1.0,Moderate,106,PM10
2023-07-07,Jhansi,1.0,Satisfactory,57,PM10
2023-07-09,Jhansi,1.0,Good,47,PM10
2023-07-10,Jhansi,1.0,Satisfactory,54,PM10
2023-07-11,Jhansi,1.0,Satisfactory,52,PM10
2023-07-12,Jhansi,1.0,Good,39,PM2.5
2023-07-13,Jhansi,1.0,Satisfactory,56,PM2.5
2023-07-14,Jhansi,1.0,Satisfactory,53,PM2.5
2023-07-15,Jhansi,1.0,Satisfactory,52,PM2.5
2023-07-16,Jhansi,1.0,Good,38,PM2.5
2023-07-17,Jhansi,1.0,Satisfactory,57,PM2.5
2023-07-18,Jhansi,1.0,Satisfactory,57,PM2.5
2023-07-19,Jhansi,1.0,Satisfactory,56,PM2.5
2023-07-20,Jhansi,1.0,Satisfactory,60,PM2.5
2023-07-21,Jhansi,1.0,Satisfactory,69,PM2.5
2023-07-22,Jhansi,1.0,Satisfactory,76,PM2.5
2023-07-23,Jhansi,1.0,Good,42,PM2.5
2023-07-24,Jhansi,1.0,Good,42,O3
2023-07-25,Jhansi,1.0,Moderate,104,PM2.5
2023-07-26,Jhansi,1.0,Satisfactory,75,PM2.5
2023-07-27,Jhansi,1.0,Satisfactory,71,PM2.5
2023-07-28,Jhansi,1.0,Satisfactory,82,PM2.5
2023-07-29,Jhansi,1.0,Satisfactory,58,PM2.5
2023-07-30,Jhansi,1.0,Satisfactory,61,PM2.5
2023-07-31,Jhansi,1.0,Satisfactory,57,PM2.5
2023-08-01,Jhansi,1.0,Satisfactory,68,PM2.5
2023-08-02,Jhansi,1.0,Satisfactory,74,PM2.5
2023-08-03,Jhansi,1.0,Satisfactory,54,PM2.5
2023-08-04,Jhansi,1.0,Satisfactory,72,PM2.5
2023-08-05,Jhansi,1.0,Good,40,PM2.5
2023-08-06,Jhansi,1.0,Good,40,PM2.5
2023-08-07,Jhansi,1.0,Satisfactory,90,PM2.5
2023-08-08,Jhansi,1.0,Satisfactory,87,PM10
2023-08-09,Jhansi,1.0,Satisfactory,79,PM10
2023-08-11,Jhansi,1.0,Satisfactory,86,PM10
2023-08-12,Jhansi,1.0,Satisfactory,79,PM10
2023-08-13,Jhansi,1.0,Satisfactory,73,PM10
2023-08-14,Jhansi,1.0,Satisfactory,78,PM10
2023-08-15,Jhansi,1.0,Satisfactory,84,PM10
2023-08-16,Jhansi,1.0,Satisfactory,88,PM10
2023-08-17,Jhansi,1.0,Satisfactory,78,PM10
2023-08-18,Jhansi,1.0,Satisfactory,83,PM10
2023-08-19,Jhansi,1.0,Satisfactory,67,PM10
2023-08-20,Jhansi,1.0,Good,36,PM2.5
2023-08-21,Jhansi,1.0,Satisfactory,77,PM10
2023-08-22,Jhansi,1.0,Good,33,PM10
2023-08-23,Jhansi,1.0,Good,35,PM10
2023-08-24,Jhansi,1.0,Good,36,PM10
2023-08-25,Jhansi,1.0,Satisfactory,76,PM10
2023-08-26,Jhansi,1.0,Satisfactory,92,PM10
2023-08-27,Jhansi,1.0,Satisfactory,98,PM10
2023-08-28,Jhansi,1.0,Moderate,111,PM10
2023-08-29,Jhansi,1.0,Satisfactory,100,PM10
2023-08-30,Jhansi,1.0,Satisfactory,89,PM10
2023-08-31,Jhansi,1.0,Satisfactory,96,PM10
2023-09-01,Jhansi,1.0,Satisfactory,83,PM10
2023-09-02,Jhansi,1.0,Satisfactory,86,PM10
2023-09-03,Jhansi,1.0,Satisfactory,86,PM10
2023-09-04,Jhansi,1.0,Satisfactory,86,PM10
2023-09-05,Jhansi,1.0,Moderate,106,PM10
2023-09-06,Jhansi,1.0,Good,41,PM10
2023-09-07,Jhansi,1.0,Good,50,PM10
2023-09-08,Jhansi,1.0,Good,29,PM10
2023-09-09,Jhansi,1.0,Good,26,PM10
2023-09-10,Jhansi,1.0,Good,43,PM10
2023-09-11,Jhansi,1.0,Good,40,PM10
2023-09-12,Jhansi,1.0,Good,36,PM10
2023-09-13,Jhansi,1.0,Good,46,PM10
2023-09-14,Jhansi,1.0,Good,35,PM10
2023-09-15,Jhansi,1.0,Good,43,PM10
2023-09-17,Jhansi,1.0,Satisfactory,59,PM10
2023-09-18,Jhansi,1.0,Satisfactory,68,PM10
2023-09-19,Jhansi,1.0,Satisfactory,87,PM10
2023-09-20,Jhansi,1.0,Satisfactory,80,PM10
2023-09-22,Jhansi,1.0,Good,48,PM10
2023-09-23,Jhansi,1.0,Good,33,PM10
2023-09-24,Jhansi,1.0,Satisfactory,96,PM10
2023-09-25,Jhansi,1.0,Moderate,112,PM10
2023-09-27,Jhansi,1.0,Satisfactory,94,PM10
2023-09-28,Jhansi,1.0,Moderate,133,PM10
2023-09-29,Jhansi,1.0,Moderate,133,PM10
2023-09-30,Jhansi,1.0,Moderate,107,PM10
2023-10-01,Jhansi,1.0,Moderate,127,PM10
2023-10-02,Jhansi,1.0,Moderate,157,PM10
2023-10-03,Jhansi,1.0,Moderate,124,PM10
2023-10-05,Jhansi,1.0,Moderate,117,PM10
2023-10-06,Jhansi,1.0,Moderate,108,PM10
2023-10-07,Jhansi,1.0,Moderate,109,PM10
2023-10-08,Jhansi,1.0,Satisfactory,92,PM10
2023-10-09,Jhansi,1.0,Satisfactory,93,PM10
2023-10-10,Jhansi,1.0,Moderate,127,PM10
2023-10-11,Jhansi,1.0,Moderate,101,PM10
2023-10-12,Jhansi,1.0,Moderate,115,PM10
2023-10-13,Jhansi,1.0,Moderate,104,PM10
2023-10-14,Jhansi,1.0,Moderate,113,PM10
2023-10-15,Jhansi,1.0,Moderate,117,PM10
2023-10-16,Jhansi,1.0,Moderate,109,PM10
2023-10-17,Jhansi,1.0,Satisfactory,88,PM10
2023-10-18,Jhansi,1.0,Moderate,111,PM10
2023-10-19,Jhansi,1.0,Moderate,116,PM10
2023-10-20,Jhansi,1.0,Moderate,117,PM10
2023-10-21,Jhansi,1.0,Moderate,130,PM10
2023-10-22,Jhansi,1.0,Moderate,125,PM10
2023-10-23,Jhansi,1.0,Moderate,135,PM10
2023-10-25,Jhansi,1.0,Moderate,130,PM10
2023-10-26,Jhansi,1.0,Moderate,132,PM10
2023-10-28,Jhansi,1.0,Moderate,124,PM10
2023-10-29,Jhansi,1.0,Moderate,134,PM10
2023-10-30,Jhansi,1.0,Moderate,134,PM10
2023-10-31,Jhansi,1.0,Moderate,139,PM10
2023-11-01,Jhansi,1.0,Poor,212,PM2.5
2023-11-02,Jhansi,1.0,Poor,201,PM2.5
2023-11-03,Jhansi,1.0,Poor,202,PM2.5
2023-11-04,Jhansi,1.0,Moderate,137,PM10
2023-11-05,Jhansi,1.0,Moderate,160,PM10
2023-11-06,Jhansi,1.0,Moderate,194,PM2.5
2023-11-07,Jhansi,1.0,Poor,203,PM2.5
2023-11-08,Jhansi,1.0,Moderate,144,PM10
2023-11-09,Jhansi,1.0,Moderate,157,PM10
2023-11-10,Jhansi,1.0,Moderate,150,PM10
2023-11-11,Jhansi,1.0,Moderate,163,PM10
2023-11-12,Jhansi,1.0,Moderate,148,PM10
2023-11-13,Jhansi,1.0,Poor,219,PM10
2023-11-14,Jhansi,1.0,Moderate,195,PM2.5
2023-11-15,Jhansi,1.0,Poor,210,PM2.5
2023-11-16,Jhansi,1.0,Poor,203,PM2.5
2023-11-17,Jhansi,1.0,Moderate,182,PM2.5
2023-11-18,Jhansi,1.0,Moderate,177,PM2.5
2023-11-19,Jhansi,1.0,Poor,208,PM2.5
2023-11-20,Jhansi,1.0,Poor,230,PM2.5
2023-11-21,Jhansi,1.0,Moderate,174,PM10
2023-11-22,Jhansi,1.0,Moderate,140,PM10
2023-11-24,Jhansi,1.0,Moderate,165,PM10
2023-11-25,Jhansi,1.0,Moderate,109,PM10
2023-11-26,Jhansi,1.0,Moderate,102,PM10
2023-11-27,Jhansi,1.0,Moderate,104,PM10
2023-11-28,Jhansi,1.0,Satisfactory,87,PM10
2023-11-29,Jhansi,1.0,Satisfactory,98,PM10
2023-11-30,Jhansi,1.0,Satisfactory,65,PM10
2023-12-01,Jhansi,1.0,Satisfactory,78,PM10
2023-12-02,Jhansi,1.0,Satisfactory,90,PM10
2023-12-03,Jhansi,1.0,Moderate,117,PM10